Location: Praha
(50.0755°N, 14.4378°E)
Time: 17:32:35
(UTC+01:00)

ISS - Visible Passes

Search period start: 17 January 2020 00:00
Search period end: 27 January 2020 00:00
Orbit: 415 x 421 km, 51.6° (Epoch: 18 January)

Date Brightness Start Highest point End Pass type
(mag) Time Alt. Az. Time Alt. Az. Time Alt. Az.
20 Jan -1.2 18:26:34 10° SSE 18:26:50 11° SSE 18:26:50 11° SSE visible
21 Jan -1.3 19:13:01 10° SW 19:14:05 18° SSW 19:14:05 18° SSW visible
22 Jan -2.4 18:25:26 10° SSW 18:28:16 25° SE 18:28:17 25° SE visible
23 Jan -1.8 17:38:07 10° S 17:40:25 17° SE 17:42:24 11° E visible
23 Jan -2.1 19:13:24 10° WSW 19:15:21 31° SW 19:15:21 31° SW visible
24 Jan -3.4 18:25:30 10° SW 18:28:46 50° SSE 18:29:24 42° ESE visible
24 Jan -0.2 20:02:10 10° W 20:02:20 11° W 20:02:20 11° W visible
25 Jan -2.8 17:37:43 10° SW 17:40:50 35° SSE 17:43:24 13° E visible
25 Jan -2.4 19:14:05 10° W 19:16:20 39° W 19:16:20 39° W visible
26 Jan -3.9 18:26:01 10° WSW 18:29:24 87° SSE 18:30:18 46° ENE visible
26 Jan -0.3 20:02:57 10° W 20:03:14 12° W 20:03:14 12° W visible
